Location: Iowa City
(41.6610°N, 91.5300°W)
Time: 12:56:14
(UTC-06:00)

ISS - Visible Passes

Search period start: 14 February 2016 00:00
Search period end: 24 February 2016 00:00
Orbit: 398 x 407 km, 51.6° (Epoch: 14 February)

Date Brightness Start Highest point End Pass type
(mag) Time Alt. Az. Time Alt. Az. Time Alt. Az.
14 Feb -2.0 18:58:00 10° NW 19:00:45 24° NNE 19:00:59 24° NNE visible
15 Feb -1.5 18:05:19 10° NNW 18:07:43 19° NNE 18:10:06 10° ENE visible
15 Feb -1.6 19:41:20 10° NW 19:43:10 30° NW 19:43:10 30° NW visible
16 Feb -2.8 18:48:35 10° NW 18:51:41 41° NNE 18:52:47 29° ENE visible
16 Feb 0.3 20:25:18 10° W 20:25:25 11° W 20:25:25 11° W visible
17 Feb -2.5 19:32:06 10° WNW 19:35:08 46° SW 19:35:08 46° SW visible
18 Feb -3.4 18:39:07 10° NW 18:42:22 88° NNE 18:44:59 15° SE visible
19 Feb -0.9 19:23:10 10° W 19:25:37 20° SW 19:27:39 12° S visible
20 Feb -1.9 18:29:45 10° WNW 18:32:48 38° SW 18:35:50 10° SSE visible
22 Feb -0.4 18:20:47 10° W 18:22:58 17° SW 18:25:07 10° S visible
